Terminal Aerodrome Forecast
Issued by NWS

Home | Current Version | Previous Version | Text Only | Print | Product List | Glossary On
Versions: 1 2 3 4 5 6 7 8 9 10 11 12 13
596
FTUS46 KMTR 032345
TAFOAK
TAF
KOAK 032345Z 0400/0506 29012KT P6SM FEW012 BKN150
     FM040400 28008KT P6SM SCT012 BKN150
     FM040900 29005KT P6SM BKN011 BKN100
     FM041100 28004KT P6SM OVC010
     FM041700 26008KT P6SM SCT011 BKN080
     FM042100 28009KT P6SM FEW012 SCT200
     FM050300 28009KT P6SM BKN012=

USA.gov is the U.S. government's official web portal to all federal, state and local government web resources and services.